Flag for Germany Weather past 2 weeks in Weiden in der Oberpfalz, Bavaria, Germany

Now
70 °F

Overcast.


Feels Like: 72 °F
Forecast: 55 / 80 °F
Wind: 2 mph from Northwest

Location: Weiden

Current Time: Jul 31, 2014 at 3:48:02 PM

Latest Report: Jul 31, 2014 at 3:00 PM


Visibility: 16 mi

Pressure: 29.95 "Hg

Humidity: 77%

Dew point: 63 °F

Location of Weiden in der OberpfalzLocation

Historic Weather in Weiden in der Oberpfalz — Graph

°F

Weiden in der Oberpfalz temperature yesterday

Maximum temperature yesterday: 76 °F (at 3:00 PM)
Minimum temperature yesterday: 62 °F (at 7:00 AM)
Average temperature yesterday: 66 °F

Past Weeks' High & Low Weather Summary

 TemperatureHumidityPressure
High89 °F (Jul 20, 3:00 PM)99% (Jul 28, 3:00 AM)30.19 "Hg (Jul 28, 3:00 AM)
Low54 °F (Jul 25, 6:00 AM)26% (Jul 18, 7:00 PM)29.67 "Hg (Jul 29, 6:00 PM)
Average69 °F69%29.91 "Hg
* Reported Jul 16 2:00 PM — Jul 31 2:00 PM, Weiden in der Oberpfalz, Weather by CustomWeather, © 2014

Note: Actual official high and low records may vary slightly from our data, if they occured in-between our weather recording intervals... More about our weather records

Advertising

Weiden in der Oberpfalz weather history for previous 24 hours

 ConditionsComfort  
Time TempWeatherWind HumidityBarometerVisibility
2:00 PM
Jul 31
70 °FOvercast.3 mph77%29.96 "Hg19 mi
1:00 PM70 °FPartly sunny.3 mph77%29.96 "Hg31 mi
12:00 PM69 °FScattered clouds.3 mph77%29.97 "Hg16 mi
11:00 AM65 °FOvercast.3 mph77%29.98 "Hg13 mi
10:00 AM64 °FOvercast.3 mph77%29.97 "Hg13 mi
9:00 AM63 °FOvercast.3 mph77%29.96 "Hg10 mi
8:00 AM62 °FOvercast.3 mph77%29.95 "Hg9 mi
7:00 AM62 °FOvercast.2 mph77%29.93 "Hg9 mi
6:00 AM61 °FOvercast.2 mph77%29.93 "Hg9 mi
5:00 AM62 °FOvercast.3 mph77%29.91 "Hg11 mi
4:00 AM62 °FOvercast.6 mph77%29.90 "Hg11 mi
3:00 AM64 °FOvercast.5 mph77%29.88 "Hg7 mi
2:00 AM64 °FOvercast.3 mph77%29.88 "Hg5 mi
1:00 AM64 °FOvercast.3 mph77%29.88 "Hg5 mi
12:00 AM64 °FOvercast.5 mph77%29.87 "Hg4 mi
11:00 PM
Jul 30
65 °FLight rain. Overcast.5 mph77%29.85 "Hg4 mi
10:00 PM66 °FOvercast.5 mph77%29.83 "Hg7 mi
9:00 PM66 °FOvercast.1 mph77%29.81 "Hg4 mi
8:00 PM67 °FLight rain. Overcast.2 mph77%29.79 "Hg6 mi
7:00 PM67 °FLight rain. Overcast.1 mph77%29.78 "Hg4 mi
6:00 PM67 °FLight rain. Partly sunny.2 mph77%29.77 "Hg6 mi
5:00 PM67 °FLight rain. Overcast.2 mph77%29.77 "Hg4 mi
4:00 PM75 °FLight rain. Light fog.2 mph68%29.72 "Hg4 mi
3:00 PM76 °FPartly sunny.2 mph64%29.72 "Hg7 mi
Weather by CustomWeather, © 2014

See weather overviewHow to use our weather pages